Regional Weather Roundup
Issued by NWS Goodland, KS

Home | Current Version | Previous Version | Graphics & Text | Print | Product List | Glossary On
Versions: 1 2 3 4 5 6 7 8 9 10 11 12 13 14 15 16 17 18 19 20 21 22 23 24 25 26 27 28 29 30 31 32 33 34 35 36 37 38 39 40 41 42 43 44 45 46 47 48 49 50
151
ASUS43 KGLD 230008
RWRGLD

GOODLAND FORECAST AREA HOURLY WEATHER ROUNDUP
NATIONAL WEATHER SERVICE GOODLAND KS
600 PM MDT SAT APR 22 2017

...OFFICIAL OBSERVATIONS...

CITY           SKY/WX    TMP DP  RH WIND       PRES   REMARKS
GOODLAND KS    MOSUNNY   57  30  35 NE3       30.24S
HILL CITY KS   SUNNY     62  28  27 N5        30.23S
IMPERIAL NEB   SUNNY     59  29  31 SW3       30.22F
MCCOOK NEB     SUNNY     63  29  27 CALM      30.21F
AKRON CO       SUNNY     54  28  36 S5        30.24S
BURLINGTON CO  NOT AVBL
LIMON CO       SUNNY     52  29  41 S7        30.24F
$$

...UNOFFICIAL OBSERVATIONS...

CITY           SKY/WX    TMP DP  RH WIND       PRES   REMARKS
LENORA KS        N/A     60  32  34 MISG        N/A
NORTON KS      SUNNY     59  25  27 CALM      30.21
SHARON SPRINGS   N/A     54  35  48 CALM        N/A
TRENTON NEB      N/A     60  32  34 CALM        N/A
KIT CARSON CO    N/A     61  34  36 CALM        N/A
YUMA CO        FAIR      54  28  37 CALM      30.23F
$$




USA.gov is the U.S. government's official web portal to all federal, state and local government web resources and services.